GSAT-9 (42695 NORAD) Tracking and Keplerian Element Data

This shows tracking and keplerian element data for the satellite.

Feedback or suggestion? Click here.




ElementValue
Catalog42695
NameGSAT-9
Epoch Orbit443
Epoch Day197.91136532
Epoch Year2018
RAAN272.7957
Inclination0.1138
Eccentricity0.0002649
Argument of Perigee197.4142
Mean Anonmoly249.8007
Mean Motion1.00272559
Decay Rate-3.06E-06
L11 42695U 17024A 18197.91136532 -.00000306 00000-0 00000+0 0 9995
L22 42695 0.1138 272.7957 0002649 197.4142 249.8007 1.00272559 4431

Live tracking and technical data element details for GSAT-9 (NORAD 42695). GSAT-9 can be tracked NOW for your location showing map with azimuth and elevation plus other details from your city location.

Track the satellite on the map from your city or location and see movement details for azimuth, elevation, latitude, longitude, range, height, and movement on the map or in text.







IsCatalogInMostPopularTable: catalog: 42695, numindb: 73
Update: records affected: 1



GetName: 42695 GSAT-9

Hit Count: updated at: Thu, 19 Jul 2018 21:25:40 GMT